Weather History for LIVT - October, 2012

Change the Weather History Date:

Sunday, October 7, 2012

  Actual Average Record
Temperature  
Mean Temperature 70 °F -  
Max Temperature 77 °F 62 °F 77 °F (2012)
Min Temperature 64 °F 53 °F 46 °F (2011)
Cooling Degree Days 6    
Growing Degree Days 20 (Base 50)    
Moisture  
Dew Point 59 °F    
Average Humidity 72    
Maximum Humidity 78    
Minimum Humidity 61    
Precipitation  
Precipitation 0.00 in 0.12 in - ()
Sea Level Pressure  
Sea Level Pressure 29.95 in    
Wind  
Wind Speed 2 mph ()    
Max Wind Speed 10 mph    
Max Gust Speed -    
Visibility 6.8 miles    
Events Rain    
Averages and records for this station are not official NWS values.
T = Trace of Precipitation, MM = Missing Value Source: Averaged Metar Reports

Daily Weather History Graph

Daily Weather History Graph

Search for Another Location

Airport or City:

Trip Planner

Search our weather history database for the weather conditions in past years. The results will help you decide how hot, cold, wet, or windy it might be!

Date:

Astronomy

Oct. 07, 2012 Rise Set
Actual Time 7:11 AM CEST 6:33 PM CEST
Civil Twilight 6:41 AM CEST 7:03 PM CEST
Nautical Twilight 6:07 AM CEST 7:37 PM CEST
Astronomical Twilight 5:32 AM CEST 8:11 PM CEST
Moon 11:16 PM CEST (10/7) 1:49 PM CEST (10/7)
Length of Visible Light 12h 21m
Length of Day
11h 22m
Waning Gibbous, 58% of the Moon is Illuminated
Oct 7
Waning Gibbous
Oct 8
Last Quarter
Oct 15
New
Oct 22
First Quarter
Oct 29
Full

Hourly Weather History & Observations

Time (CEST) Temp. Dew Point Humidity Pressure Visibility Wind Dir Wind Speed Gust Speed Precip Events Conditions
12:55 AM 64.4 °F 57.2 °F 77% 30.06 in - East 2.3 mph - N/A   Clear
1:55 AM 66.2 °F 57.2 °F 73% 30.04 in - ESE 1.2 mph - N/A   Clear
2:00 AM 66 °F 58 °F 69% 30.06 in 12 mi ESE 1.2 mph - -   Partly Cloudy
2:55 AM 66.2 °F 59.0 °F 78% 30.04 in - Calm Calm - N/A   Clear
5:55 AM 64.4 °F 57.2 °F 77% 29.98 in - Calm Calm - N/A   Clear
6:55 AM 66.2 °F 57.2 °F 73% 29.98 in 6.2 mi East 2.3 mph - N/A   Partly Cloudy
7:55 AM 66.2 °F 55.4 °F 68% 29.98 in 6.2 mi East 2.3 mph - N/A   Partly Cloudy
8:00 AM 66 °F 56 °F 61% 29.98 in 12 mi East 2.3 mph - -   Scattered Clouds
8:55 AM 68.0 °F 59.0 °F 73% 29.95 in 6.2 mi ESE 4.6 mph - N/A   Scattered Clouds
9:55 AM 68.0 °F 60.8 °F 78% 29.95 in 6.2 mi East 2.3 mph - N/A   Scattered Clouds
10:55 AM 69.8 °F 62.6 °F 78% 29.95 in 6.2 mi South 4.6 mph - N/A   Scattered Clouds
11:55 AM 73.4 °F 60.8 °F 65% 29.95 in 6.2 mi SW 2.3 mph - N/A   Partly Cloudy
12:55 PM 75.2 °F 62.6 °F 65% 29.92 in 6.2 mi WSW 5.8 mph - N/A   Partly Cloudy
1:55 PM 71.6 °F 62.6 °F 73% 29.92 in 6.2 mi WSW 2.3 mph - N/A   Scattered Clouds
2:00 PM 72 °F 63 °F 67% 29.93 in 6 mi WSW 2.3 mph - -   Partly Cloudy
2:55 PM 71.6 °F 62.6 °F 73% 29.92 in 6.2 mi SW 1.2 mph - N/A   Partly Cloudy
3:55 PM 71.6 °F 60.8 °F 69% 29.89 in 6.2 mi WSW 1.2 mph - N/A   Partly Cloudy
4:55 PM 71.6 °F 62.6 °F 73% 29.86 in 6.2 mi WSW 1.2 mph - N/A   Scattered Clouds
5:55 PM 69.8 °F 62.6 °F 78% 29.86 in 6.2 mi East 1.2 mph - N/A   Partly Cloudy
6:55 PM 68.0 °F 60.8 °F 78% 29.89 in 6.2 mi ENE 2.3 mph - N/A   Partly Cloudy
7:55 PM 68.0 °F 59.0 °F 73% 29.89 in 6.2 mi NE 3.5 mph - N/A   Scattered Clouds
8:00 PM 68 °F 58 °F 63% 29.90 in 6 mi NE 3.5 mph - -   Mostly Cloudy
8:55 PM 68.0 °F 59.0 °F 73% 29.92 in 6.2 mi ENE 4.6 mph - N/A Rain Rain
9:55 PM 66.2 °F 59.0 °F 78% 29.92 in 6.2 mi ENE 9.2 mph - N/A   Scattered Clouds
10:55 PM 66.2 °F 57.2 °F 73% 29.95 in - ENE 10.4 mph - N/A   Clear
11:55 PM 66.2 °F 55.4 °F 68% 29.95 in - North 1.2 mph - N/A   Clear